Decatur, TX

6:32 PM CDT on September 29, 2016 (GMT -0500)
Decatur

Weather History for KLUD - September, 2013

Change the Weather History Date:

Sunday, September 1, 2013

  Actual Average (KDTO) Record (KDTO)
Temperature  
Mean Temperature 91 °F -  
Max Temperature 102 °F 91 °F 108 °F (2000)
Min Temperature 80 °F 68 °F 63 °F (2004)
Cooling Degree Days 26    
Growing Degree Days 41 (Base 50)    
Moisture  
Dew Point 59 °F    
Average Humidity 36    
Maximum Humidity 59    
Minimum Humidity 20    
Precipitation  
Precipitation 0.00 in - - ()
Sea Level Pressure  
Sea Level Pressure 29.85 in    
Wind  
Wind Speed 7 mph (SSW)    
Max Wind Speed 14 mph    
Max Gust Speed 23 mph    
Visibility 10 miles    
Events Rain    
Averages and records for this station are not official NWS values.
T = Trace of Precipitation, MM = Missing Value Source: NWS Daily Summary

Daily Weather History Graph

Daily Weather History Graph

Search for Another Location

Airport or City:

Trip Planner

Search our weather history database for the weather conditions in past years. The results will help you decide how hot, cold, wet, or windy it might be!

Date:

Astronomy

Sep. 01, 2013 Rise Set
Actual Time 7:04 AM CDT 7:55 PM CDT
Civil Twilight 6:39 AM CDT 8:20 PM CDT
Nautical Twilight 6:09 AM CDT 8:50 PM CDT
Astronomical Twilight 5:38 AM CDT 9:20 PM CDT
Moon 3:34 AM CDT (9/1) 5:27 PM CDT (9/1)
Length of Visible Light 13h 40m
Length of Day
12h 50m
Waning Crescent, 13% of the Moon is Illuminated
Sep 1
Waning Crescent
Sep 5
New
Sep 12
First Quarter
Sep 19
Full
Sep 26
Last Quarter

Hourly Weather History & Observations

Time (CDT) Temp. Heat Index Dew Point Humidity Pressure Visibility Wind Dir Wind Speed Gust Speed Precip Events Conditions
12:15 AM 87.8 °F 86.5 °F 56.7 °F 35% 29.83 in 10.0 mi South 8.1 mph - N/A   Clear
12:35 AM 87.8 °F 86.5 °F 56.7 °F 35% 29.83 in 10.0 mi South 8.1 mph - N/A   Clear
12:55 AM 87.4 °F 86.1 °F 56.7 °F 35% 29.83 in 10.0 mi South 9.2 mph - N/A   Clear
1:15 AM 87.1 °F 85.9 °F 56.8 °F 36% 29.84 in 10.0 mi South 9.2 mph - N/A   Clear
1:35 AM 87.1 °F 86.1 °F 57.6 °F 37% 29.84 in 10.0 mi South 9.2 mph - N/A   Clear
1:55 AM 86.9 °F 86.1 °F 58.3 °F 38% 29.84 in 10.0 mi South 10.4 mph - N/A   Clear
2:15 AM 86.4 °F 85.6 °F 58.6 °F 39% 29.84 in 10.0 mi South 10.4 mph - N/A   Clear
2:35 AM 85.6 °F 85.0 °F 58.5 °F 40% 29.84 in 10.0 mi South 10.4 mph - N/A   Clear
2:55 AM 85.5 °F 84.8 °F 58.6 °F 40% 29.84 in 10.0 mi South 9.2 mph - N/A   Clear
3:15 AM 84.9 °F 84.4 °F 59.0 °F 41% 29.84 in 10.0 mi SSW 9.2 mph 17.3 mph N/A   Clear
3:35 AM 84.2 °F 84.0 °F 59.4 °F 43% 29.84 in 10.0 mi SSW 9.2 mph - N/A   Clear
3:55 AM 83.5 °F 83.6 °F 59.9 °F 45% 29.85 in 10.0 mi SSW 9.2 mph - N/A   Clear
4:15 AM 83.8 °F 84.0 °F 60.3 °F 45% 29.85 in 10.0 mi SSW 10.4 mph - N/A   Clear
4:35 AM 83.5 °F 83.7 °F 60.6 °F 46% 29.84 in 10.0 mi SSW 9.2 mph - N/A   Clear
4:55 AM 82.6 °F 83.1 °F 60.8 °F 48% 29.85 in 10.0 mi SSW 6.9 mph - N/A   Clear
5:15 AM 82.0 °F 82.7 °F 61.2 °F 49% 29.85 in 10.0 mi SSW 8.1 mph - N/A   Clear
5:35 AM 81.3 °F 82.2 °F 61.5 °F 51% 29.85 in 10.0 mi SW 6.9 mph - N/A   Clear
5:55 AM 81.0 °F 81.9 °F 61.7 °F 52% 29.85 in 10.0 mi SW 6.9 mph - N/A   Clear
6:15 AM 81.0 °F 81.9 °F 61.7 °F 52% 29.85 in 10.0 mi SW 6.9 mph - N/A   Clear
6:35 AM 80.8 °F 81.8 °F 61.7 °F 52% 29.85 in 10.0 mi SW 6.9 mph - N/A   Clear
6:55 AM 80.6 °F 81.7 °F 62.1 °F 53% 29.86 in 10.0 mi SW 6.9 mph - N/A   Clear
7:15 AM 80.2 °F 81.4 °F 62.1 °F 54% 29.87 in 10.0 mi SW 5.8 mph - N/A   Clear
7:35 AM 80.6 °F 81.8 °F 62.4 °F 54% 29.87 in 10.0 mi SW 6.9 mph - N/A   Clear
7:55 AM 81.5 °F 82.5 °F 62.4 °F 52% 29.87 in 10.0 mi SW 6.9 mph - N/A   Clear
8:15 AM 82.6 °F 83.6 °F 62.6 °F 51% 29.88 in 10.0 mi SW 8.1 mph - N/A   Clear
8:35 AM 83.5 °F 84.3 °F 62.6 °F 49% 29.88 in 10.0 mi SW 6.9 mph - N/A   Clear
8:55 AM 84.4 °F 85.0 °F 62.2 °F 47% 29.89 in 10.0 mi WSW 9.2 mph - N/A   Clear
9:15 AM 85.1 °F 85.7 °F 62.1 °F 46% 29.89 in 10.0 mi WSW 10.4 mph - N/A   Clear
9:35 AM 86.9 °F 87.2 °F 61.7 °F 43% 29.89 in 10.0 mi WSW 8.1 mph - N/A   Clear
9:55 AM 88.5 °F 88.3 °F 60.6 °F 39% 29.90 in 10.0 mi WSW 8.1 mph - N/A   Clear
10:15 AM 89.8 °F 89.7 °F 61.0 °F 38% 29.90 in 10.0 mi WSW 9.2 mph - N/A   Clear
10:35 AM 91.6 °F 91.3 °F 60.6 °F 35% 29.91 in 10.0 mi West 6.9 mph - N/A   Clear
10:55 AM 93.2 °F 92.9 °F 60.1 °F 33% 29.90 in 10.0 mi West 10.4 mph - N/A   Clear
11:15 AM 95.2 °F 94.7 °F 59.4 °F 30% 29.91 in 10.0 mi NNW 4.6 mph - N/A   Clear
11:35 AM 96.3 °F 95.9 °F 59.4 °F 29% 29.90 in 10.0 mi NW 4.6 mph - N/A   Clear
11:55 AM 98.2 °F 97.9 °F 58.5 °F 27% 29.90 in 10.0 mi NW 5.8 mph - N/A   Clear
12:15 PM 99.0 °F 98.1 °F 57.9 °F 25% 29.89 in 10.0 mi Calm Calm - N/A   Clear
12:35 PM 99.9 °F 99.0 °F 57.4 °F 24% 29.89 in 10.0 mi NW 3.5 mph - N/A   Clear
12:55 PM 100.4 °F 99.3 °F 56.7 °F 23% 29.88 in 10.0 mi WNW 3.5 mph - N/A   Clear
1:15 PM 100.9 °F 100.0 °F 56.5 °F 23% 29.87 in 10.0 mi SW 4.6 mph - N/A   Clear
1:35 PM 101.8 °F 100.8 °F 56.8 °F 22% 29.87 in 10.0 mi WNW 3.5 mph - N/A   Clear
1:55 PM 99.9 °F 98.5 °F 56.1 °F 23% 29.87 in 10.0 mi East 5.8 mph - N/A   Clear
2:15 PM 100.4 °F 99.3 °F 56.1 °F 23% 29.85 in 10.0 mi NW 4.6 mph - N/A   Clear
2:35 PM 100.4 °F 99.3 °F 55.9 °F 23% 29.85 in 10.0 mi WSW 5.8 mph - N/A   Clear
2:55 PM 99.9 °F 98.5 °F 55.9 °F 23% 29.84 in 10.0 mi SSW 4.6 mph - N/A   Clear
3:15 PM 99.9 °F 98.5 °F 55.8 °F 23% 29.83 in 10.0 mi Calm Calm - N/A   Clear
3:35 PM 101.7 °F 100.1 °F 54.9 °F 21% 29.82 in 10.0 mi SE 4.6 mph - N/A   Clear
3:55 PM 100.9 °F 99.1 °F 54.5 °F 21% 29.82 in 10.0 mi Calm Calm - N/A   Clear
4:15 PM 101.8 °F 100.4 °F 54.9 °F 21% 29.81 in 10.0 mi Calm Calm - N/A   Clear
4:35 PM 102.6 °F 100.9 °F 54.1 °F 20% 29.80 in 10.0 mi Calm Calm - N/A   Clear
4:55 PM 101.1 °F 99.4 °F 54.5 °F 21% 29.80 in 10.0 mi Calm Calm - N/A   Clear
5:15 PM 100.4 °F 98.8 °F 54.9 °F 22% 29.80 in 10.0 mi West 3.5 mph - N/A   Clear
5:35 PM 100.6 °F 98.6 °F 54.5 °F 21% 29.80 in 10.0 mi NE 5.8 mph - N/A   Clear
5:55 PM 97.7 °F 95.9 °F 55.4 °F 24% 29.80 in 10.0 mi ENE 11.5 mph - N/A   Clear
6:15 PM 96.3 °F - 52.5 °F 23% 29.80 in 10.0 mi ESE 8.1 mph - N/A   Clear
6:35 PM 95.4 °F 94.6 °F 58.1 °F 29% 29.80 in 10.0 mi SE 6.9 mph - N/A   Clear
6:55 PM 95.9 °F 94.6 °F 56.5 °F 27% 29.80 in 10.0 mi SE 8.1 mph - N/A   Clear
7:15 PM 95.5 °F 94.4 °F 57.2 °F 28% 29.81 in 10.0 mi Calm Calm - N/A   Clear
7:35 PM 94.1 °F 93.1 °F 58.3 °F 30% 29.81 in 10.0 mi Calm Calm - N/A   Clear
7:55 PM 95.2 °F 93.9 °F 57.2 °F 28% 29.82 in 10.0 mi Calm Calm - N/A   Clear
8:15 PM 93.4 °F 92.2 °F 57.6 °F 30% 29.82 in 10.0 mi East 6.9 mph - N/A   Clear
8:35 PM 91.8 °F 90.6 °F 58.1 °F 32% 29.82 in 10.0 mi East 4.6 mph - N/A   Clear
8:55 PM 91.0 °F 90.0 °F 58.3 °F 33% 29.83 in 10.0 mi ENE 4.6 mph - N/A   Clear
9:15 PM 90.0 °F 89.1 °F 58.6 °F 35% 29.84 in 10.0 mi NE 3.5 mph - N/A   Clear
9:35 PM 89.8 °F 88.9 °F 59.0 °F 35% 29.85 in 10.0 mi NE 3.5 mph - N/A   Scattered Clouds
9:55 PM 89.4 °F 88.7 °F 58.8 °F 36% 29.87 in 10.0 mi NE 8.1 mph - N/A   Scattered Clouds
10:15 PM 87.4 °F 88.0 °F 62.6 °F 43% 29.89 in 10.0 mi East 6.9 mph - N/A Rain Light Rain
10:35 PM 85.8 °F 87.4 °F 64.8 °F 49% 29.89 in 10.0 mi South 8.1 mph - N/A Rain Light Rain
10:55 PM 83.7 °F 85.8 °F 66.0 °F 55% 29.89 in 10.0 mi SE 8.1 mph - N/A   Clear
11:15 PM 84.7 °F 85.9 °F 63.7 °F 49% 29.89 in 10.0 mi SE 13.8 mph 23.0 mph N/A   Clear
11:35 PM 81.9 °F 83.7 °F 65.3 °F 57% 29.89 in 10.0 mi SE 11.5 mph - N/A   Clear
11:55 PM 81.9 °F 84.1 °F 66.2 °F 59% 29.89 in 10.0 mi SSE 13.8 mph 17.3 mph N/A   Clear